Theta_e
320 324 335 333 337 331 337 342 341 345 348 346 345 347 349 348 348 343 342 349 351 349 345 343 344 347 348 347 345 340 332 330 339 345 342 340 338 332 333 339 339 337 338 340 339 342 345 344 341
319 332 331 325 330 334 336 337 347 348 346 344 344 345 347 350 343 344 343 346 349 346 342 340 342 343 343 343 346 345 339 331 332 336 341 345 343 341 341 342 342 338 337 338 336 337 343 345 343
327 332 330 325 326 332 344 344 339 346 345 345 345 343 344 346 343 343 343 346 347 341 341 341 345 347 346 344 343 347 345 339 334 338 338 338 341 343 344 342 340 337 333 332 336 334 341 344 343
327 323 319 325 329 326 335 338 338 339 339 344 343 347 342 339 343 337 335 347 345 344 342 342 346 347 348 350 350 351 349 347 343 338 339 340 339 337 336 335 333 331 332 334 338 338 340 342 341
324 318 321 322 323 330 339 335 335 338 341 342 343 346 343 337 335 334 336 345 347 342 344 343 343 344 346 349 350 350 351 350 347 346 344 341 342 342 341 338 337 335 334 334 334 338 339 339 337
321 315 319 321 332 342 341 338 339 344 344 342 343 343 341 336 334 338 338 340 342 341 338 337 337 340 340 345 346 348 348 349 348 347 345 345 344 342 341 341 340 338 336 335 334 333 333 335 335
322 317 320 320 339 344 344 339 340 342 339 342 340 345 338 337 336 337 342 332 333 335 335 332 336 339 343 343 341 340 340 340 339 337 335 335 336 341 342 341 339 340 339 337 336 337 337 336 335
319 312 317 322 341 346 341 337 338 344 346 344 341 344 340 338 336 338 338 337 336 334 332 334 337 336 331 333 332 335 338 338 337 336 335 331 330 329 331 340 342 341 340 340 339 336 336 336 338
311 316 325 339 342 344 336 339 338 339 345 345 346 346 341 335 337 335 336 337 336 334 334 334 331 335 332 325 327 332 333 335 336 335 335 332 331 333 335 333 335 339 344 343 341 338 337 337 336
313 321 326 322 336 339 337 338 339 344 344 343 342 339 339 339 338 336 334 335 338 338 339 338 337 334 324 322 322 323 328 335 335 334 333 334 333 333 334 335 335 337 338 338 338 338 338 338 337
316 332 336 339 335 337 338 338 341 344 346 342 342 339 338 338 337 336 336 337 333 333 337 339 326 322 321 320 320 321 322 324 326 327 325 325 326 329 332 330 332 334 335 335 337 339 340 340 339
334 343 343 344 337 338 342 341 342 341 342 340 337 335 337 337 337 336 335 329 327 327 327 327 321 321 319 320 320 320 320 321 321 321 322 322 321 321 322 324 327 331 331 331 333 336 336 334 337
340 344 340 339 339 340 338 339 341 342 337 333 334 335 334 332 331 333 329 325 323 322 322 321 320 320 320 320 319 318 319 320 319 318 318 317 317 317 318 318 321 323 324 328 329 330 331 330 333
337 342 340 338 338 338 339 339 339 336 333 335 334 333 331 330 332 329 326 325 324 322 321 322 321 321 321 320 320 319 319 319 318 316 315 314 313 313 313 313 314 316 318 321 326 331 332 332 330
340 342 340 338 336 339 336 341 341 336 335 336 334 332 330 328 331 327 325 323 322 322 321 321 321 321 320 321 321 319 318 317 315 313 311 310 310 310 311 311 312 312 313 314 318 324 327 330 331
326 334 342 334 335 335 335 346 341 335 335 335 334 332 330 328 327 326 324 322 322 322 322 322 321 321 321 320 320 318 317 316 313 310 308 307 307 308 310 310 311 311 312 312 314 316 321 326 329
314 328 330 337 333 334 337 344 338 337 334 335 333 332 331 329 327 325 324 325 325 323 323 323 323 322 321 319 317 317 316 314 310 309 308 307 305 305 308 309 309 310 310 311 313 314 318 322 324
316 319 335 339 337 336 339 340 339 336 334 334 333 332 331 330 328 327 326 327 325 326 325 323 322 319 317 317 316 314 314 310 308 307 306 306 305 303 303 307 308 309 309 310 311 312 314 316 321
316 318 321 339 338 340 339 340 341 338 336 335 333 332 332 332 329 329 327 326 325 323 322 319 318 316 315 313 312 312 310 309 308 306 304 303 304 302 302 304 307 307 309 310 311 312 313 314 318
317 336 340 339 339 340 338 340 339 339 338 337 336 334 332 332 329 330 328 325 321 319 318 317 315 314 313 311 310 309 309 308 307 306 304 302 303 301 302 304 305 306 307 308 309 310 311 314 316
317 329 340 340 338 336 337 338 338 336 339 339 336 333 332 331 330 325 321 319 319 318 317 315 314 312 310 309 307 308 308 307 305 304 303 302 301 301 301 302 304 305 306 307 308 309 309 311 314
320 321 339 340 337 341 334 341 335 336 338 340 337 337 334 324 321 319 318 319 318 317 316 314 312 310 308 307 307 307 307 306 303 301 301 301 300 300 300 301 302 304 304 305 306 307 308 308 310
325 338 339 334 338 338 341 338 337 337 337 336 339 331 322 322 318 318 318 318 317 316 315 313 311 308 307 306 306 306 305 301 301 301 300 300 300 300 300 300 301 302 303 304 305 305 306 307 308
332 332 327 325 334 341 339 341 343 340 337 335 339 324 321 319 318 317 317 316 314 314 313 312 309 307 306 306 305 304 302 301 301 301 301 301 301 301 300 299 300 302 303 303 303 304 305 305 306
326 318 328 329 339 344 339 343 340 343 339 335 334 323 320 318 316 315 315 313 312 313 313 311 309 307 307 305 303 302 301 301 301 302 301 300 299 300 300 299 300 302 303 302 302 302 303 303 304
321 320 324 328 345 343 341 349 343 338 325 329 323 320 319 316 314 313 312 311 312 312 312 310 308 306 306 305 303 303 302 302 302 302 301 299 299 298 298 299 300 301 302 302 302 302 302 302 303
326 324 322 332 335 339 341 343 341 325 323 322 321 320 319 317 315 313 310 311 311 312 311 309 305 304 305 303 303 302 302 302 303 301 300 300 301 300 298 299 300 301 302 302 302 302 302 303 303
324 321 325 328 342 345 342 346 341 330 325 321 320 319 319 316 314 311 309 310 310 310 308 305 305 304 304 304 304 303 303 304 303 302 301 301 302 302 301 300 300 301 302 302 302 302 302 303 304
326 325 321 323 333 340 344 342 328 340 325 321 318 317 316 316 314 309 308 309 310 307 305 305 304 304 304 304 304 304 304 304 304 303 303 303 303 303 302 301 301 302 303 304 303 303 303 303 303
324 324 321 326 330 334 336 335 318 327 321 319 316 315 315 316 312 308 308 309 308 307 305 305 304 304 304 304 305 305 305 304 303 303 303 304 304 303 303 303 303 303 303 304 303 303 304 304 303
Wind_Speed
6 5 2 1 4 5 3 3 3 7 5 5 5 8 4 3 2 4 5 8 3 4 6 4 3 3 7 6 8 10 13 16 14 15 14 14 15 18 19 16 16 18 17 16 17 19 18 14 11
8 5 1 2 5 5 3 2 10 12 8 4 10 6 6 4 3 4 6 4 3 6 7 6 5 3 2 3 5 8 9 11 13 15 15 15 14 15 16 16 15 16 16 16 17 20 21 18 13
7 2 3 4 3 4 4 2 7 8 8 4 4 4 4 3 5 5 8 4 5 8 8 6 5 5 4 2 1 3 4 6 7 8 9 11 13 13 13 13 14 15 15 15 16 19 22 20 16
4 4 4 5 3 3 3 7 6 8 4 10 2 3 1 8 4 8 14 6 7 8 9 8 7 7 6 7 6 6 6 4 3 3 4 4 6 9 11 12 12 13 13 14 16 18 21 21 19
4 3 5 4 3 2 4 5 3 6 4 5 2 2 4 4 7 12 9 7 5 9 9 8 7 6 6 8 8 6 5 3 2 1 0 2 4 7 8 10 12 13 13 14 16 20 22 21 20
4 3 5 2 2 2 3 4 14 13 7 3 5 2 3 2 8 17 7 11 9 9 10 8 8 9 9 9 10 9 8 7 5 3 3 2 5 7 10 12 13 13 14 15 16 17 19 21 21
6 4 5 6 6 3 3 2 5 5 4 3 6 3 0 4 3 7 8 10 12 13 10 8 8 9 11 13 12 10 11 11 13 14 15 15 10 9 12 15 16 17 17 19 19 18 19 19 20
5 4 4 1 4 4 1 4 3 5 1 1 2 4 5 5 1 7 8 7 10 16 17 15 16 17 18 21 19 12 13 14 14 15 15 16 14 13 14 15 17 20 21 21 22 22 22 22 21
3 5 1 4 5 5 4 6 0 3 7 4 4 4 6 13 9 9 11 17 19 21 26 21 20 22 23 24 25 22 20 19 17 18 19 15 16 12 11 15 17 20 22 22 24 26 25 24 24
4 4 8 3 5 5 4 6 7 5 10 9 11 12 11 6 6 12 14 18 23 23 25 24 25 25 24 25 26 24 20 18 18 18 18 19 15 15 15 16 15 15 17 22 24 24 26 24 25
2 4 5 3 8 8 4 3 4 16 5 8 11 8 11 15 13 13 15 20 21 21 22 21 21 22 24 25 24 25 25 24 23 22 21 19 17 15 15 15 13 15 17 16 18 24 25 27 27
5 6 4 3 7 6 3 3 6 6 8 11 9 10 15 11 12 15 19 19 22 22 22 21 18 21 23 23 23 23 22 20 20 20 20 20 19 18 17 17 14 11 9 12 10 14 13 14 22
5 3 7 12 12 7 12 6 7 11 11 14 14 13 9 8 12 18 19 18 18 21 20 20 19 22 21 24 24 23 21 19 18 20 21 22 22 21 20 17 16 14 13 11 11 13 14 13 15
7 13 9 10 7 7 12 1 4 4 12 13 13 9 6 6 10 15 16 17 16 16 16 16 18 17 17 20 19 18 19 19 20 21 22 22 23 24 24 23 22 19 16 15 13 14 14 14 15
19 12 10 4 5 4 7 6 7 6 10 14 10 9 7 6 14 12 13 14 13 12 11 13 12 13 15 15 16 17 18 19 23 24 25 23 23 23 24 24 23 23 23 20 16 14 14 16 17
6 5 6 7 9 5 2 2 3 6 9 10 9 6 5 3 9 11 11 12 11 9 10 9 11 14 14 16 16 17 19 23 25 26 26 25 23 22 24 25 24 25 24 21 20 19 17 16 15
3 6 4 7 9 2 3 5 3 6 7 6 8 3 4 3 5 11 11 10 9 8 9 11 12 16 15 15 16 18 21 23 24 24 26 26 25 24 21 23 24 25 22 20 20 21 17 17 17
5 5 3 7 3 5 9 8 4 4 8 6 5 5 4 4 7 13 10 8 9 11 12 13 15 17 17 18 20 22 24 25 25 26 26 25 26 27 25 19 21 24 25 22 20 19 20 19 18
5 4 4 4 0 7 8 11 5 4 8 7 7 7 4 5 1 5 5 8 12 14 15 17 18 20 22 24 24 24 24 23 25 26 27 28 25 27 28 23 19 20 22 22 21 19 19 21 18
3 4 4 5 5 8 7 6 3 3 5 6 9 6 6 1 4 2 9 14 16 18 17 18 19 19 19 20 20 18 17 19 22 26 28 29 27 26 26 24 19 20 21 21 23 22 19 15 16
6 6 6 7 8 9 12 4 0 3 1 2 4 5 3 4 5 8 14 16 16 19 16 16 16 16 19 20 21 22 21 24 27 30 29 27 27 26 25 27 19 19 20 18 20 21 20 15 16
4 8 13 16 5 5 1 2 2 3 4 2 4 6 5 7 9 11 14 16 16 15 12 13 15 18 19 21 23 22 20 19 25 27 26 25 27 25 24 26 21 20 20 20 19 18 19 19 15
1 16 14 6 6 5 2 4 3 5 5 4 5 7 7 6 9 9 13 15 14 12 11 12 14 17 19 22 21 19 20 22 24 25 27 26 25 24 24 23 24 22 20 19 18 19 19 18 15
15 17 9 6 4 3 3 4 3 5 5 5 6 9 10 9 8 12 15 14 12 10 11 11 14 16 17 18 17 18 18 21 22 25 28 28 23 22 23 22 22 22 21 21 21 19 17 18 16
8 6 3 2 1 4 2 2 4 2 4 10 13 12 10 9 7 6 10 10 10 8 8 9 13 13 14 15 17 16 16 17 21 25 25 25 26 26 24 21 20 20 18 20 20 20 19 18 17
9 7 6 6 5 4 2 4 3 3 6 9 14 13 11 9 6 6 11 10 10 7 7 9 11 12 13 13 14 14 16 18 21 20 20 25 25 26 23 18 19 19 18 18 20 22 21 19 18
5 4 5 8 3 4 2 2 4 7 8 11 13 13 12 9 9 9 12 11 9 8 8 7 10 11 11 12 11 13 17 17 18 16 17 21 24 24 22 18 19 19 19 18 17 19 21 21 20
4 6 3 4 5 2 3 4 4 7 8 10 12 11 11 10 9 9 12 11 10 10 7 7 9 9 8 10 11 13 15 15 15 15 16 19 22 22 21 18 19 20 20 19 17 16 17 20 20
1 2 7 6 3 5 4 5 3 13 14 14 11 9 10 10 10 7 12 11 10 8 7 7 6 7 9 10 12 15 16 16 14 15 16 18 19 21 19 18 19 21 20 21 21 18 16 17 19
3 3 4 5 4 2 3 5 6 9 13 14 11 8 7 10 8 10 12 10 9 6 5 5 5 7 8 10 14 16 15 17 16 16 18 18 18 19 18 18 18 20 21 23 25 20 18 17 18
Wind_Direction
163 156 152 36 45 60 40 13 271 23 63 21 78 69 105 27 124 146 27 28 72 100 116 88 53 134 152 140 128 120 124 132 139 139 146 155 166 168 175 181 185 188 189 189 187 186 183 175 165
160 148 99 64 74 55 351 331 72 84 137 136 41 12 17 37 356 65 46 35 108 87 68 56 21 8 146 148 134 130 129 134 143 152 156 162 167 175 184 192 196 199 200 201 198 195 194 193 190
150 150 81 85 92 90 117 268 129 70 45 53 73 42 340 20 24 49 23 60 122 106 99 90 68 42 36 37 71 106 131 135 143 147 154 162 173 186 195 201 201 203 208 209 204 200 200 203 207
155 28 38 74 45 24 120 215 113 121 49 63 57 45 96 14 37 73 6 106 105 96 81 71 58 60 51 41 43 32 24 55 96 132 154 178 194 195 203 208 211 214 214 213 210 208 206 208 213
63 63 59 59 18 339 276 349 72 94 92 26 18 14 24 27 62 22 51 107 112 99 83 72 59 55 59 60 59 58 48 37 49 14 254 242 262 254 239 235 231 230 228 224 223 219 218 218 219
47 101 64 80 114 218 48 20 71 72 78 137 84 70 0 323 17 12 76 94 88 67 67 52 50 49 44 40 35 47 45 33 28 12 333 334 311 291 280 273 266 259 252 247 241 235 231 230 228
111 82 169 163 155 67 100 60 46 62 149 39 131 98 32 283 350 1 87 76 72 53 42 46 62 53 57 48 42 38 28 23 15 15 9 359 351 308 285 276 268 263 261 257 251 247 245 242 238
107 94 109 156 186 107 99 64 68 58 2 336 198 165 175 222 53 102 96 52 47 48 43 62 64 56 56 52 42 39 39 27 12 360 350 351 344 320 298 286 275 268 260 256 260 253 249 248 249
108 60 89 174 141 145 152 124 274 51 94 55 11 54 121 148 99 73 77 76 66 58 53 73 61 60 68 52 51 52 45 37 28 22 13 358 359 355 337 329 307 288 275 265 257 254 251 249 248
94 113 203 161 139 139 84 80 118 109 83 76 68 73 112 164 118 87 82 67 66 62 58 61 61 64 62 57 50 44 38 36 33 23 13 13 5 346 340 336 314 293 290 275 262 259 256 252 254
112 162 159 35 93 72 72 65 116 127 70 112 117 101 105 107 97 89 73 69 67 67 70 71 71 68 59 53 47 48 46 38 31 29 26 22 14 1 355 354 350 322 295 295 283 255 250 249 250
86 28 73 81 68 69 12 30 59 59 105 111 101 110 103 96 90 79 73 76 80 80 76 78 68 58 55 51 52 49 44 38 31 25 21 17 13 8 6 1 356 346 336 326 319 283 281 269 260
83 85 46 72 75 70 64 41 93 80 93 103 94 89 88 94 94 98 103 95 83 76 71 66 55 50 47 42 34 33 33 30 26 20 13 4 357 352 348 346 345 341 335 317 293 291 294 299 275
111 91 86 66 65 72 110 360 81 85 114 95 94 93 99 114 112 110 107 104 92 82 71 56 50 41 35 33 27 26 23 20 20 16 10 2 356 350 344 337 331 324 323 322 318 297 287 281 284
110 85 75 63 109 120 155 17 97 124 119 107 111 114 110 130 133 130 129 111 102 91 83 69 62 45 39 36 32 23 18 13 14 12 9 6 359 352 348 341 333 328 322 316 311 302 292 277 272
84 64 131 207 162 208 163 162 124 122 120 115 115 119 146 139 129 145 137 117 114 109 89 63 56 48 42 36 25 15 13 13 13 14 18 17 12 3 354 350 345 343 334 327 316 314 307 300 285
334 163 175 157 213 189 119 133 181 135 123 119 116 131 179 126 140 160 152 128 111 89 64 54 46 38 27 21 15 9 10 14 14 12 12 15 17 14 5 357 350 347 346 343 337 319 320 308 299
180 118 148 155 174 67 87 110 92 98 128 129 127 168 209 217 201 184 170 119 96 82 70 55 44 33 20 5 356 357 5 10 14 16 12 9 8 9 8 1 352 345 343 342 342 332 325 309 306
131 127 158 95 43 75 112 111 74 102 115 129 170 210 213 219 119 132 116 91 83 72 65 51 37 25 13 8 6 3 1 2 9 12 12 11 6 5 4 357 356 348 344 341 344 340 331 317 312
146 127 142 110 98 97 117 70 60 119 149 179 203 203 211 195 101 132 75 81 79 75 61 46 34 23 20 20 15 6 360 1 5 1 5 7 8 6 7 360 354 351 349 347 346 349 339 318 303
200 186 184 132 108 65 117 75 43 334 126 240 248 183 165 185 110 84 83 91 84 67 54 43 34 31 26 17 7 4 6 8 2 1 358 0 4 6 7 4 355 352 355 353 355 354 352 325 317
221 184 138 138 121 155 181 164 202 210 207 163 108 112 112 91 89 88 90 88 81 72 57 46 37 30 25 18 18 20 18 10 0 2 4 4 8 6 3 1 4 1 357 0 359 357 359 356 336
1 108 117 121 84 115 358 95 199 168 217 197 148 112 87 88 104 99 95 96 82 66 56 45 36 30 25 20 20 20 18 14 8 6 2 3 1 5 3 1 7 9 8 6 4 4 8 10 355
127 89 53 52 77 46 249 141 232 187 194 176 151 113 113 109 103 99 103 98 76 66 59 43 32 27 20 18 19 21 22 21 10 0 359 358 351 349 360 2 359 10 13 13 14 14 12 12 15
104 90 61 16 14 210 276 80 236 273 203 182 147 135 127 122 112 97 97 93 75 67 56 39 26 21 12 16 16 18 19 17 5 10 8 359 358 357 360 1 4 9 10 12 15 18 16 16 15
191 163 152 184 176 203 22 196 262 50 50 105 132 130 122 117 111 102 106 93 79 79 66 42 22 11 14 13 12 13 16 10 9 15 18 13 10 12 10 8 12 16 20 22 27 30 27 25 22
178 67 149 107 60 104 200 271 90 100 89 111 124 126 133 128 119 118 111 102 88 81 72 37 21 30 23 14 15 16 12 5 8 10 20 17 16 18 19 11 14 17 19 22 23 26 23 26 24
121 146 90 28 133 171 243 246 223 166 163 142 137 143 141 126 128 124 113 106 99 94 66 49 44 30 16 13 9 11 7 359 3 9 2 0 6 12 22 18 18 20 19 17 18 19 20 21 22
57 60 58 106 102 151 165 253 10 185 171 156 152 155 141 143 140 124 115 110 113 89 72 69 48 30 26 25 21 14 12 6 5 6 359 1 7 13 21 24 21 19 18 18 18 19 19 22 21
88 123 124 119 215 89 141 266 327 150 143 148 145 137 127 138 132 124 128 121 115 102 75 66 45 31 26 26 18 4 7 11 15 10 5 10 12 16 19 17 15 15 18 18 17 12 17 18 15